This is the latest recevied weather packets stored in our database for station/object W2OBX. If no packets are shown the sender has not sent any weather packets the latest 10 day(s).
| Time | Temp. | Humidity | Pressure | Rain* | Wind** | Luminosity | Snow |
|---|---|---|---|---|---|---|---|
| 1778096670 | 21.11° C | 83% | 1012.4 hPa | 0 mm | - | 44 W/m² | - |
| 1778096367 | 21.11° C | 83% | 1012.2 hPa | 0 mm | - | 41 W/m² | - |
| 1778096065 | 21.11° C | 84% | 1012.6 hPa | 0 mm | - | 32 W/m² | - |
| 1778095761 | 21.11° C | 83% | 1012.4 hPa | 0 mm | - | 55 W/m² | - |
| 1778095458 | 21.11° C | 83% | 1012.4 hPa | 0 mm | - | 37 W/m² | - |
| 1778095155 | 21.11° C | 83% | 1012.7 hPa | 0 mm | - | 37 W/m² | - |
| 1778094851 | 21.11° C | 82% | 1013 hPa | 0 mm | - | 41 W/m² | - |
| 1778094548 | 21.67° C | 81% | 1013.2 hPa | 0 mm | - | 40 W/m² | - |
| 1778094244 | 21.67° C | 83% | 1013.2 hPa | 0 mm | - | 44 W/m² | - |
| 1778093941 | 21.67° C | 81% | 1012.9 hPa | 0 mm | - | 36 W/m² | - |
| 1778093638 | 21.67° C | 80% | 1013.2 hPa | 0 mm | - | 48 W/m² | - |
| 1778093335 | 21.67° C | 80% | 1013.2 hPa | 0 mm | - | 60 W/m² | - |
| 1778093032 | 21.67° C | 81% | 1013.3 hPa | 0 mm | - | 63 W/m² | - |
| 1778092730 | 22.22° C | 79% | 1013.3 hPa | 0 mm | - | 60 W/m² | - |
| 1778092425 | 22.22° C | 79% | 1013 hPa | 0 mm | - | 72 W/m² | - |
| 1778092122 | 22.22° C | 80% | 1012.5 hPa | 0 mm | - | 79 W/m² | - |
| 1778091819 | 22.78° C | 81% | 1012.5 hPa | 0 mm | - | 139 W/m² | - |
| 1778091517 | 22.78° C | 81% | 1012.9 hPa | 0 mm | - | 159 W/m² | - |
| 1778091215 | 22.78° C | 80% | 1012.5 hPa | 0 mm | - | 138 W/m² | - |
| 1778090912 | 22.22° C | 80% | 1012.3 hPa | 0 mm | - | 409 W/m² | - |
| 1778090608 | 22.22° C | 80% | 1012.5 hPa | 0 mm | - | 365 W/m² | - |
| 1778090304 | 22.22° C | 81% | 1012.2 hPa | 0 mm | - | 293 W/m² | - |
| 1778090001 | 21.67° C | 81% | 1012.3 hPa | 0 mm | - | 305 W/m² | - |
| 1778089698 | 22.22° C | 83% | 1012.4 hPa | 0 mm | - | 123 W/m² | - |
| 1778089396 | 21.67° C | 83% | 1012.3 hPa | 0 mm | - | 212 W/m² | - |
* Rain latest hour (hover to see other rain measurements)
** Current wind speed in m/s (hover to see current wind gust speed)